Location: Delettes
(50.6178°N, 2.2123°E)
Time: 00:21:26
(UTC+00:00)

Meteor 1-18 Rocket - Pass Details

Date: 27 February 2020
Orbit: 836 x 909 km, 81.2° (Epoch: 04 April)

Event Time Altitude Azimuth Distance (km) Brightness Sun altitude
Rises 18:29:11 0° 348° (NNW) 3,547 7.6 -10.4°
Reaches altitude 10° 18:31:42 10° 351° (N) 2,596 6.9 -10.8°
Maximum altitude 18:37:37 70° 75° (ENE) 952 4.3 -11.8°
Drops below altitude 10° 18:43:24 10° 160° (SSE) 2,538 6.5 -12.7°
Sets 18:45:49 0° 162° (SSE) 3,461 7.2 -13.1°
